When you browse on this site, cookies collect data to enhance your experience and personalize the content and advertising you see.
Visit our Privacy Policy to learn more. By continuing to use the site, you agree to this use of cookies and data.
  • In Belgium
  • List of Countries
  • For 7 days
  • Water Temperature
  • Weather Map
  • Weather Widgets
  • user-avatar
    Login

    Hourly Weather Annaba

    Today, 20 October, Sunday

    Time Temperature Precipitation Wind Pressure Humidity
    00:00 +26°C° 0 mm 3 mps 758 mmHg 52%
    01:00 +26°C° 0 mm 4 mps 758 mmHg 51%
    02:00 +25°C° 0 mm 4 mps 758 mmHg 51%
    03:00 +25°C° 0 mm 3 mps 758 mmHg 50%
    04:00 +25°C° 0 mm 3 mps 757 mmHg 50%
    05:00 +24°C° 0 mm 3 mps 758 mmHg 50%
    06:00 +24°C° 0 mm 3 mps 758 mmHg 50%
    07:00 +24°C° 0 mm 3 mps 758 mmHg 50%
    08:00 +26°C° 0 mm 3 mps 758 mmHg 45%
    09:00 +28°C° 0 mm 3 mps 758 mmHg 40%
    10:00 +30°C° 0 mm 3 mps 758 mmHg 35%
    11:00 +33°C° 0 mm 3 mps 758 mmHg 33%
    12:00 +34°C° 0 mm 2 mps 758 mmHg 31%
    13:00 +35°C° 0 mm 2 mps 758 mmHg 29%
    14:00 +35°C° 0 mm 2 mps 758 mmHg 30%
    15:00 +35°C° 0 mm 2 mps 757 mmHg 30%
    16:00 +34°C° 0 mm 3 mps 757 mmHg 31%
    17:00 +31°C° 0 mm 2 mps 758 mmHg 35%
    18:00 +29°C° 0 mm 2 mps 758 mmHg 40%
    19:00 +28°C° 0 mm 2 mps 758 mmHg 45%
    20:00 +27°C° 0 mm 2 mps 758 mmHg 45%
    21:00 +27°C° 0 mm 3 mps 759 mmHg 45%
    22:00 +26°C° 0 mm 3 mps 759 mmHg 45%
    23:00 +26°C° 0 mm 3 mps 760 mmHg 48%

    Tomorrow, 21 October, Monday

    Time Temperature Precipitation Wind Pressure Humidity
    00:00 +25°C° 0 mm 4 mps 760 mmHg 51%
    01:00 +25°C° 0 mm 4 mps 760 mmHg 54%
    02:00 +23°C° 0 mm 4 mps 760 mmHg 61%
    03:00 +23°C° 0 mm 4 mps 760 mmHg 68%
    04:00 +22°C° 0 mm 4 mps 760 mmHg 75%
    05:00 +22°C° 0 mm 3 mps 760 mmHg 79%
    06:00 +22°C° 0 mm 3 mps 761 mmHg 82%
    07:00 +21°C° 0 mm 2 mps 761 mmHg 86%
    08:00 +24°C° 0 mm 2 mps 761 mmHg 79%
    09:00 +25°C° 0 mm 1 mps 761 mmHg 72%
    10:00 +27°C° 0 mm 1 mps 762 mmHg 65%
    11:00 +27°C° 0 mm 2 mps 762 mmHg 61%
    12:00 +28°C° 0 mm 2 mps 761 mmHg 58%
    13:00 +29°C° 0 mm 3 mps 761 mmHg 55%
    14:00 +28°C° 0 mm 3 mps 761 mmHg 58%
    15:00 +28°C° 0 mm 3 mps 760 mmHg 62%
    16:00 +27°C° 0 mm 4 mps 760 mmHg 65%
    17:00 +26°C° 0 mm 3 mps 760 mmHg 71%
    18:00 +25°C° 0 mm 3 mps 760 mmHg 76%
    19:00 +24°C° 0 mm 3 mps 760 mmHg 82%
    20:00 +24°C° 0 mm 2 mps 760 mmHg 80%
    21:00 +24°C° 0 mm 2 mps 760 mmHg 79%
    22:00 +24°C° 0 mm 1 mps 760 mmHg 78%
    23:00 +24°C° 0 mm 2 mps 760 mmHg 76%

    Day after tomorrow, 22 October, Tuesday

    Time Temperature Precipitation Wind Pressure Humidity
    00:00 +24°C° 0 mm 2 mps 760 mmHg 75%
    01:00 +24°C° 0 mm 3 mps 760 mmHg 73%
    02:00 +22°C° 0 mm 3 mps 759 mmHg 72%
    03:00 +22°C° 0 mm 3 mps 759 mmHg 71%
    04:00 +22°C° 0 mm 4 mps 758 mmHg 70%
    05:00 +22°C° 0 mm 4 mps 758 mmHg 70%
    06:00 +22°C° 0 mm 4 mps 758 mmHg 70%
    07:00 +21°C° 0 mm 4 mps 757 mmHg 70%
    08:00 +23°C° 0 mm 4 mps 757 mmHg 64%
    09:00 +26°C° 0 mm 4 mps 757 mmHg 59%
    10:00 +29°C° 0 mm 5 mps 757 mmHg 54%
    11:00 +30°C° 0 mm 5 mps 757 mmHg 49%
    12:00 +33°C° 0 mm 5 mps 757 mmHg 43%
    13:00 +34°C° 0 mm 5 mps 756 mmHg 38%
    14:00 +35°C° 0 mm 5 mps 756 mmHg 37%
    15:00 +35°C° 0 mm 5 mps 755 mmHg 35%
    16:00 +35°C° 0 mm 5 mps 755 mmHg 34%
    17:00 +33°C° 0 mm 6 mps 755 mmHg 39%
    18:00 +32°C° 0 mm 6 mps 755 mmHg 44%
    19:00 +29°C° 0 mm 7 mps 755 mmHg 49%
    20:00 +28°C° 0 mm 6 mps 755 mmHg 53%
    21:00 +28°C° 0 mm 6 mps 755 mmHg 57%
    22:00 +27°C° 0 mm 5 mps 755 mmHg 60%
    23:00 +27°C° 0 mm 5 mps 755 mmHg 58%

    23 October, Wednesday

    Time Temperature Precipitation Wind Pressure Humidity
    00:00 +27°C° 0 mm 5 mps 754 mmHg 56%
    01:00 +27°C° 0 mm 6 mps 754 mmHg 54%
    02:00 +27°C° 0 mm 5 mps 754 mmHg 58%
    03:00 +26°C° 0 mm 5 mps 753 mmHg 61%
    04:00 +26°C° 0 mm 5 mps 753 mmHg 65%
    05:00 +25°C° 0 mm 5 mps 753 mmHg 70%
    06:00 +23°C° 0 mm 5 mps 753 mmHg 76%
    07:00 +23°C° 0 mm 5 mps 753 mmHg 81%
    08:00 +23°C° 0 mm 4 mps 753 mmHg 78%
    09:00 +25°C° 0 mm 4 mps 753 mmHg 75%
    10:00 +26°C° 0 mm 4 mps 754 mmHg 72%
    11:00 +26°C° 0.1 mm 5 mps 754 mmHg 72%
    12:00 +26°C° 0.1 mm 5 mps 754 mmHg 72%
    13:00 +25°C° 0.1 mm 5 mps 753 mmHg 72%
    14:00 +23°C° 0.1 mm 5 mps 753 mmHg 75%
    15:00 +22°C° 0.1 mm 5 mps 754 mmHg 78%
    16:00 +21°C° 0.1 mm 5 mps 754 mmHg 82%
    17:00 +21°C° 0.2 mm 5 mps 754 mmHg 82%
    18:00 +21°C° 0.2 mm 5 mps 755 mmHg 82%
    19:00 +20°C° 0.2 mm 5 mps 756 mmHg 83%
    20:00 +20°C° 0.1 mm 4 mps 756 mmHg 81%
    21:00 +20°C° 0.1 mm 4 mps 757 mmHg 80%
    22:00 +20°C° 0.1 mm 3 mps 757 mmHg 78%
    23:00 +20°C° 0.1 mm 3 mps 758 mmHg 78%

    24 October, Thursday

    Time Temperature Precipitation Wind Pressure Humidity
    00:00 +20°C° 0.1 mm 3 mps 758 mmHg 78%
    01:00 +20°C° 0.1 mm 2 mps 758 mmHg 78%
    02:00 +19°C° 0.2 mm 2 mps 758 mmHg 79%
    03:00 +19°C° 0.2 mm 2 mps 758 mmHg 80%
    04:00 +18°C° 0.2 mm 2 mps 758 mmHg 81%
    05:00 +18°C° 0.1 mm 2 mps 758 mmHg 82%
    06:00 +18°C° 0.1 mm 2 mps 758 mmHg 83%
    07:00 +17°C° 0.1 mm 2 mps 758 mmHg 84%
    08:00 +19°C° 0.1 mm 2 mps 758 mmHg 72%
    09:00 +20°C° 0.1 mm 2 mps 758 mmHg 60%
    10:00 +23°C° 0.1 mm 2 mps 758 mmHg 49%
    11:00 +24°C° 0 mm 2 mps 758 mmHg 43%
    12:00 +25°C° 0 mm 2 mps 757 mmHg 37%
    13:00 +26°C° 0 mm 2 mps 757 mmHg 31%
    14:00 +25°C° 0 mm 2 mps 757 mmHg 34%
    15:00 +25°C° 0 mm 3 mps 757 mmHg 37%
    16:00 +24°C° 0 mm 3 mps 757 mmHg 40%
    17:00 +22°C° 0 mm 3 mps 757 mmHg 46%
    18:00 +21°C° 0 mm 2 mps 757 mmHg 53%
    19:00 +19°C° 0 mm 2 mps 757 mmHg 59%
    20:00 +19°C° 0.1 mm 2 mps 758 mmHg 61%
    21:00 +19°C° 0.1 mm 2 mps 758 mmHg 63%
    22:00 +19°C° 0.1 mm 2 mps 758 mmHg 65%
    23:00 +18°C° 0.2 mm 2 mps 758 mmHg 65%

    25 October, Friday

    Time Temperature Precipitation Wind Pressure Humidity
    00:00 +18°C° 0.2 mm 3 mps 758 mmHg 66%
    01:00 +18°C° 0.2 mm 3 mps 758 mmHg 66%
    02:00 +18°C° 0.4 mm 3 mps 757 mmHg 67%
    03:00 +18°C° 0.4 mm 4 mps 757 mmHg 68%
    04:00 +18°C° 0.4 mm 4 mps 757 mmHg 69%
    05:00 +17°C° 0.4 mm 5 mps 757 mmHg 71%
    06:00 +16°C° 0.4 mm 5 mps 757 mmHg 74%
    07:00 +16°C° 0.4 mm 6 mps 757 mmHg 76%
    08:00 +17°C° 0.2 mm 6 mps 757 mmHg 70%
    09:00 +20°C° 0.2 mm 7 mps 757 mmHg 64%
    10:00 +21°C° 0.2 mm 8 mps 757 mmHg 58%
    11:00 +22°C° 0.2 mm 8 mps 757 mmHg 58%
    12:00 +22°C° 0.2 mm 9 mps 757 mmHg 57%
    13:00 +23°C° 0.2 mm 9 mps 757 mmHg 57%
    14:00 +22°C° 0.3 mm 9 mps 757 mmHg 59%
    15:00 +22°C° 0.3 mm 9 mps 757 mmHg 60%
    16:00 +22°C° 0.3 mm 9 mps 757 mmHg 62%
    17:00 +21°C° 0.3 mm 8 mps 758 mmHg 67%
    18:00 +20°C° 0.3 mm 7 mps 758 mmHg 72%
    19:00 +19°C° 0.3 mm 6 mps 759 mmHg 77%
    20:00 +17°C° 0.2 mm 6 mps 759 mmHg 79%
    21:00 +17°C° 0.2 mm 6 mps 759 mmHg 80%
    22:00 +17°C° 0.2 mm 5 mps 759 mmHg 81%
    23:00 +17°C° 0.2 mm 5 mps 759 mmHg 82%
    Show more